User: anonymous   Login
Location: Caltech
(34.1382°N, 118.1253°W)
Time: 19:30:44
(UTC-08:00)
Language:

Gurwin Techsat 1B - Orbit

View from above orbital plane
View from above orbital plane
View from above satellite
View from above satellite

Ground track
Ground track

The orbit data is extracted from the following two-line orbital elements,

1 25397U 98043D   14331.86879850  .00000135  00000-0  78074-4 0  5077
2 25397 098.4927 283.9333 0001694 149.9066 267.4989 14.23488643851151
Epoch (UTC): 27 November 2014 20:51:04
Eccentricity: 0.0001694
inclination: 98.4927°
perigee height: 812 km
apogee height: 815 km
right ascension of ascending node: 283.9333°
argument of perigee: 149.9066°
revolutions per day: 14.23488643
mean anomaly at epoch: 267.4989°
orbit number at epoch: 85115

The dashed part of the orbit path shows where the satellite is in the earth's shadow,  

DLR